Location: Commerly
(45.4712°N, 1.9824°E)
Time: 21:38:30
(UTC+00:00)

Daily predictions for brighter satellites

Satellite Brightness Start Highest point End
(mag) Time Altitude Azimuth Time Altitude Azimuth Time Altitude Azimuth
CREW DRAGON DEMO-1 DEB 3.3 17:14:41 10° NW 17:17:27 39° NNE 17:20:13 10° E
Meteor 1-24 Rocket 3.6 17:13:00 10° S 17:18:21 86° E 17:23:40 10° NNE
COSMO-SKYMED 1 3.5 17:16:40 10° NE 17:20:25 28° E 17:24:08 10° SSE
Meteor 2-10 Rocket 3.8 17:15:20 10° N 17:20:41 51° ENE 17:25:47 10° SSE
Cosmos 1844 Rocket 3.1 17:18:12 10° S 17:23:32 44° ESE 17:28:52 10° NE
NOAA 12 4.4 17:22:31 10° S 17:27:44 74° WSW 17:33:00 10° NNW
Cosmos 2279 Rocket 4.1 17:24:49 10° N 17:31:08 90° WSW 17:37:23 10° S
CZ-4B R/B 1.9 17:32:51 10° NNE 17:36:01 38° E 17:39:06 10° S
Cosmos 1939 Rocket 2.9 17:35:05 10° SSE 17:39:09 64° ENE 17:43:11 10° N
Cosmos 2278 Rocket 4.0 17:39:39 10° ESE 17:41:04 11° E 17:41:33 11° E
Aureole 3 3.4 17:38:55 10° N 17:41:56 31° ENE 17:44:40 10° SE
OE (NEXTSAT) 4.3 17:38:48 10° W 17:42:14 82° N 17:44:59 15° E
Okean O Rocket 2.1 17:39:32 10° S 17:43:57 66° WSW 17:48:22 10° NNW
CZ-4B R/B 3.8 17:38:34 10° S 17:44:03 64° WSW 17:49:41 10° NNW
Cosmos 2228 4.4 17:42:09 10° NNW 17:46:11 42° W 17:50:15 10° SSW
TELKOM 3 3.5 17:44:23 10° W 17:46:35 46° NNW 17:48:01 19° NE
Okean-O 3.4 17:42:46 10° SE 17:46:38 30° ENE 17:50:30 10° N
ATLAS 5 CENTAUR R/B 3.4 17:43:44 10° W 17:47:08 23° NNW 17:50:54 10° NNE
H-2A R/B 2.6 17:42:57 10° N 17:47:20 62° WNW 17:51:37 10° SSW
Cosmos 44 4.0 17:45:02 10° S 17:49:20 35° ESE 17:53:00 15° NE
Feng Yun 1-1 Rocket 4.2 17:44:13 10° SSE 17:49:36 70° ENE 17:55:09 10° N
YAOGAN 1 3.3 17:46:27 10° SE 17:50:14 31° ENE 17:54:03 10° N
X-37B 0.9 17:47:39 10° WSW 17:50:47 59° SSE 17:52:52 19° E
Cosmos 1892 Rocket 3.8 17:46:51 10° SSW 17:51:11 72° W 17:55:31 10° N
Aureole 2 Rocket 2.4 17:49:39 10° SSW 17:52:39 65° WNW 17:55:45 10° NNE
Cosmos 158 Rocket 4.1 17:47:32 10° NNW 17:52:51 62° ENE 17:58:12 10° SSE
ATLAS 2AS CENTAUR R/B 4.4 17:48:44 10° W 17:55:23 28° NNW 18:01:52 10° NNE
MOS 1 Rocket 3.2 17:52:58 10° NNE 17:57:10 50° E 18:01:20 10° S
CZ-4 R/B 1.8 17:53:56 10° SE 17:57:45 40° ENE 18:01:31 10° N
CZ-2D R/B 3.1 17:54:47 10° SSE 17:58:37 69° ENE 18:02:27 10° N
Cosmos 489 Rocket 4.4 17:53:05 10° NNW 17:59:28 78° ENE 18:05:48 10° SSE
Meteor 1-21 Rocket 4.2 17:54:11 10° S 17:59:34 57° E 18:05:00 10° NNE
COSMOS 2455 3.3 17:54:08 10° SW 18:00:05 63° NW 18:06:06 10° NNE
SJ 16-02 1.3 17:55:44 10° SSW 18:00:08 81° ESE 18:04:33 10° NNE
CZ-3B R/B 2.3 18:00:51 10° NW 18:03:21 44° NE 18:08:40 13° ESE
Cosmos 1812 Rocket 4.1 17:59:50 10° N 18:03:54 36° ENE 18:07:55 10° SE
PSLV R/B 4.4 18:00:54 10° NNE 18:04:54 40° E 18:08:52 10° S
SKYMED 2 3.5 18:04:15 10° NNE 18:08:38 88° ESE 18:12:58 10° SSW
Cosmos 923 Rocket 3.9 18:05:52 10° NNW 18:11:14 79° ENE 18:16:32 10° SSE
Cosmos 1340 3.2 18:07:49 10° SSE 18:11:15 35° E 18:12:36 26° NE
Cosmos 1455 2.1 18:07:52 10° N 18:11:42 88° W 18:15:32 10° S
Aureole 1 4.3 18:11:44 10° NNW 18:14:44 74° WSW 18:17:55 10° SSE
Cosmos 1898 Rocket 3.8 18:09:50 10° S 18:14:51 46° ESE 18:18:36 17° NE
Cosmos 2263 Rocket 4.3 18:10:42 10° W 18:15:00 22° NW 18:19:18 10° N
ERS-2 2.1 18:11:59 13° NNE 18:15:06 60° ESE 18:18:41 10° S
Cosmos 1092 Rocket 4.0 18:09:07 10° S 18:15:10 59° E 18:21:12 10° NNE
Cosmos 1689 Rocket 2.3 18:17:18 42° ESE 18:17:18 42° ESE 18:19:51 10° S
Iridium 4 Rocket 3.8 18:11:48 10° N 18:17:13 47° E 18:22:08 10° SSE
Cosmos 1680 Rocket 3.4 18:12:13 10° NNW 18:17:28 68° ENE 18:22:38 10° SSE
USA 234 4.2 18:14:03 19° ENE 18:17:51 33° N 18:23:34 10° NW
IRS-1C Rocket 4.0 18:12:38 10° SSE 18:17:53 89° ENE 18:23:11 10° NNW
ARGOS 3.4 18:16:38 10° SE 18:21:43 45° ENE 18:26:49 10° N
NOAA 15 4.5 18:17:17 10° SSE 18:22:29 69° ENE 18:27:45 10° N
Cosmos 2344 4.4 18:13:43 10° NW 18:22:39 57° NE 18:34:58 10° ESE
H-2A R/B 1.9 18:18:24 10° SSE 18:23:21 64° ENE 18:28:27 10° N
Lacrosse 5 2.6 18:22:22 10° WNW 18:27:16 52° SW 18:32:08 10° SSE
Meteor 2-1 Rocket 4.5 18:22:28 10° NNW 18:28:00 69° W 18:33:27 10° S
Cosmos 2098 Rocket 4.5 18:21:43 10° SSE 18:28:38 52° E 18:35:44 10° NNE
Nadezhda 4 Rocket 4.3 18:23:07 10° SSW 18:29:19 69° W 18:35:31 10° N
CZ-2C R/B 3.3 18:29:46 28° ENE 18:31:35 35° E 18:36:39 10° SSE
NOSS 2-1 (E) 2.8 18:30:44 10° SSW 18:34:01 62° SE 18:34:09 61° ESE
ISS -3.0 18:31:00 10° W 18:34:16 43° NNW 18:34:48 39° N
Cosmos 1703 3.3 18:33:37 10° SSW 18:37:30 78° W 18:40:54 13° N
Cosmos 1818 4.4 18:34:18 10° WSW 18:39:32 47° NW 18:43:39 16° NNE
CZ-2C R/B 3.8 18:34:28 10° S 18:39:42 57° W 18:45:17 10° NNW
CSL-04 Debris 4.0 18:35:24 10° SSE 18:40:43 66° ENE 18:46:05 10° N
Cosmos 1626 Rocket 4.0 18:37:10 10° SSW 18:41:29 62° W 18:45:53 10° N
COSMOS 2406 3.4 18:36:27 10° NNW 18:42:05 50° ENE 18:44:01 36° ESE
Cosmos 1937 Rocket 3.5 18:40:05 10° S 18:45:18 63° ESE 18:47:28 35° NE
Cosmos 1833 Rocket 2.8 18:43:31 10° NNW 18:48:58 48° ENE 18:49:44 45° E
Helios 1A Rocket 2.9 18:45:19 10° SSE 18:49:27 83° WSW 18:53:37 10° NNW
Meteor 2-19 Rocket 4.4 18:44:35 10° S 18:50:40 64° E 18:56:46 10° NNE
SAR-Lupe-4 4.0 18:49:58 29° N 18:51:35 59° WNW 18:55:06 10° SSW
CREW DRAGON DEMO-1 DEB 4.3 18:49:57 10° WNW 18:52:22 32° SW 18:52:22 32° SW
Cosmos 2112 Rocket 4.3 18:50:42 10° NNW 18:55:54 67° WSW 19:01:03 10° S
CZ-4C R/B 4.5 18:52:52 10° NW 18:56:30 16° N 18:59:07 13° NNE
COSMO-SKYMED 1 4.4 18:52:45 10° N 18:56:33 30° WNW 19:00:21 10° SW
Cosmos 2082 Rocket 3.1 18:52:32 10° NNW 18:56:34 31° NNE 18:56:34 31° NNE
Cosmos 1417 Rocket 4.4 18:57:21 10° N 19:03:30 60° ENE 19:06:54 27° SSE
Cosmos 1758 Rocket 3.5 19:00:42 10° S 19:05:09 86° W 19:05:48 65° N
Cosmos 2026 Rocket 4.1 18:59:32 10° SSW 19:05:39 76° W 19:11:54 10° N
Cosmos 1553 Rocket 3.9 19:01:06 10° N 19:07:32 73° E 19:13:51 10° SSE
Cosmos 1844 Rocket 4.2 19:02:30 10° WSW 19:07:33 33° NW 19:12:25 11° N
NOSS 3-1 (C) 4.1 19:00:01 10° NW 19:07:35 81° SW 19:15:32 13° SSE
CZ-4B R/B 4.5 19:06:08 10° NNW 19:07:52 14° WNW 19:09:36 10° W
Meteor 2-15 4.4 19:07:12 10° N 19:13:24 84° W 19:19:32 10° S
Cosmos-2242 4.3 19:17:45 10° NNW 19:20:15 33° NNW 19:20:15 33° NNW
Cosmos 2278 Rocket 2.2 19:18:29 10° SSW 19:23:28 67° SSE 19:23:28 67° SSE
USA 267 3.7 19:26:05 44° SSE 19:26:05 44° SSE 19:31:31 10° SSW
USA 229 DEB 3.9 19:18:53 10° NW 19:26:15 82° SW 19:29:23 40° SSE
USA 229 3.9 19:19:00 10° NW 19:26:21 83° SW 19:29:23 41° SSE
X-37B 3.5 19:24:11 10° W 19:25:09 18° W 19:25:09 18° W
CSL-04 Rocket 4.3 19:22:58 10° S 19:28:15 54° W 19:33:39 10° NNW
Cosmos 44 4.5 19:26:00 10° WSW 19:30:32 38° NW 19:31:28 35° NNW
S3M 4.1 19:24:56 10° N 19:29:53 59° NNE 19:29:53 59° NNE
CZ-4 R/B 4.1 19:30:03 10° SW 19:32:55 18° W 19:35:47 10° NW
ATLAS 5 CENTAUR R/B 4.4 19:32:59 10° NNW 19:33:40 10° N 19:33:42 10° N
SJ 16-02 4.2 19:37:16 10° W 19:39:19 13° NW 19:41:24 10° NNW
NOSS 3-1 (A) 4.1 19:34:12 10° NW 19:41:48 79° SW 19:44:37 47° SSE
USA 234 3.8 20:01:24 47° NNW 20:01:24 47° NNW 20:06:27 10° NW
CZ-2C R/B 4.0 20:11:15 36° NW 20:11:50 37° WNW 20:16:56 10° SW
Cosmos 2082 Rocket 4.4 20:36:32 10° NW 20:38:28 21° NW 20:38:28 21° NW
